Weather History for Conroe, TX

Change the Weather History Date:

Wednesday, September 18, 2013

  Actual Average Record
Temperature  
Mean Temperature 81 °F -  
Max Temperature 95 °F 86 °F 98 °F (2005)
Min Temperature 69 °F 64 °F 51 °F (2000)
Cooling Degree Days 16    
Growing Degree Days 31 (Base 50)    
Moisture  
Dew Point 71 °F    
Average Humidity 79    
Maximum Humidity 100    
Minimum Humidity 42    
Precipitation  
Precipitation 0.11 in - - ()
Sea Level Pressure  
Sea Level Pressure 29.96 in    
Wind  
Wind Speed 2 mph (SE)    
Max Wind Speed 9 mph    
Max Gust Speed 29 mph    
Visibility 9 miles    
Events Rain , Thunderstorm    
Averages and records for this station are not official NWS values.
T = Trace of Precipitation, MM = Missing Value Source: NWS Daily Summary

Daily Weather History Graph

Daily Weather History Graph

Search for Another Location

Airport:

Trip Planner

Search our weather history database for the weather conditions in past years. The results will help you decide how hot, cold, wet, or windy it might be!

Date:

Astronomy

Sep. 18, 2013 Rise Set
Actual Time 7:07 AM CDT 7:22 PM CDT
Civil Twilight 6:43 AM CDT 7:46 PM CDT
Nautical Twilight 6:15 AM CDT 8:14 PM CDT
Astronomical Twilight 5:47 AM CDT 8:43 PM CDT
Moon 6:47 PM CDT (9/18) 6:12 AM CDT (9/18)
Length of Visible Light 13h 03m
Length of Day
12h 15m
Waxing Gibbous, 99% of the Moon is Illuminated
Sep 18
Waxing Gibbous
Sep 19
Full
Sep 26
Last Quarter
Oct 4
New
Oct 11
First Quarter

Hourly Weather History & Observations

Time (CDT) Temp. Heat Index Dew Point Humidity Pressure Visibility Wind Dir Wind Speed Gust Speed Precip Events Conditions
12:53 AM 73.9 °F - 69.1 °F 85% 30.00 in 10.0 mi Calm Calm - N/A   Clear
1:53 AM 73.0 °F - 69.1 °F 87% 30.00 in 10.0 mi NNW 3.5 mph - N/A   Clear
2:53 AM 71.1 °F - 69.1 °F 93% 29.99 in 10.0 mi Calm Calm - N/A   Clear
3:53 AM 71.1 °F - 69.1 °F 93% 29.98 in 10.0 mi Calm Calm - N/A   Clear
4:53 AM 71.1 °F - 69.1 °F 93% 29.97 in 10.0 mi Calm Calm - N/A   Clear
5:53 AM 70.0 °F - 69.1 °F 97% 29.97 in 10.0 mi Calm Calm - N/A   Clear
6:53 AM 69.1 °F - 69.1 °F 100% 29.98 in 9.0 mi Calm Calm - N/A   Clear
7:53 AM 71.1 °F - 70.0 °F 96% 29.99 in 7.0 mi Calm Calm - N/A   Clear
8:53 AM 80.1 °F 84.5 °F 73.9 °F 81% 30.00 in 10.0 mi Calm Calm - N/A   Clear
9:53 AM 84.0 °F 91.2 °F 73.9 °F 72% 30.01 in 10.0 mi SE 5.8 mph - N/A   Clear
10:53 AM 87.1 °F 94.5 °F 73.0 °F 63% 30.01 in 10.0 mi SSE 9.2 mph - N/A   Partly Cloudy
11:53 AM 90.0 °F 95.4 °F 70.0 °F 52% 30.01 in 10.0 mi SSE 9.2 mph - N/A   Partly Cloudy
12:53 PM 91.0 °F 96.6 °F 70.0 °F 50% 29.98 in 10.0 mi SE 9.2 mph - N/A   Partly Cloudy
1:53 PM 91.0 °F 95.6 °F 69.1 °F 48% 29.95 in 10.0 mi Variable 6.9 mph - N/A   Scattered Clouds
2:53 PM 93.0 °F 96.4 °F 66.9 °F 42% 29.92 in 10.0 mi SE 9.2 mph - N/A   Scattered Clouds
3:53 PM 91.9 °F 95.9 °F 68.0 °F 45% 29.91 in 10.0 mi SSE 5.8 mph - N/A   Partly Cloudy
4:32 PM 80.6 °F 84.6 °F 71.6 °F 74% 29.92 in 1.0 mi Variable 5.8 mph 28.8 mph 0.11 in Rain , Thunderstorm Heavy Thunderstorms and Rain
4:35 PM 80.6 °F 84.6 °F 71.6 °F 74% 29.93 in 10.0 mi ESE 8.1 mph 28.8 mph 0.11 in Rain , Thunderstorm Light Thunderstorms and Rain
4:53 PM 79.0 °F - 75.0 °F 88% 29.93 in 10.0 mi Calm Calm - 0.11 in Thunderstorm Thunderstorm
5:23 PM 82.4 °F 89.5 °F 75.2 °F 79% 29.92 in 10.0 mi Calm Calm - N/A   Partly Cloudy
5:53 PM 84.0 °F 91.9 °F 75.0 °F 74% 29.91 in 10.0 mi ESE 3.5 mph - N/A   Clear
6:53 PM 82.0 °F 86.7 °F 72.0 °F 71% 29.91 in 10.0 mi Calm Calm - 0.00 in   Scattered Clouds
7:53 PM 78.1 °F - 73.0 °F 84% 29.91 in 10.0 mi Calm Calm - N/A   Clear
8:53 PM 75.0 °F - 73.0 °F 94% 29.93 in 10.0 mi Calm Calm - N/A   Clear
9:53 PM 73.9 °F - 73.0 °F 97% 29.95 in 10.0 mi Calm Calm - N/A   Clear
10:53 PM 73.0 °F - 72.0 °F 96% 29.96 in 8.0 mi Calm Calm - N/A   Clear
11:53 PM 73.0 °F - 72.0 °F 96% 29.96 in 7.0 mi Calm Calm - N/A   Clear